Location: Natural Bridges National Monument
(37.6093°N, 109.9767°W)
Time: 03:16:54
(UTC-07:00)

Daily predictions for brighter satellites

Satellite Brightness Start Highest point End
(mag) Time Altitude Azimuth Time Altitude Azimuth Time Altitude Azimuth
CENTAUR R/B 3.9 03:58:46 32° NE 03:58:46 32° NE 04:02:24 10° NE
Cosmos 2297 4.3 04:36:46 50° NE 04:37:15 52° ENE 04:42:45 10° SE
DELTA 2 R/B (1) 4.0 04:42:22 59° SE 04:42:22 59° SE 04:46:51 10° ESE
Cosmos 2278 Rocket 3.4 04:55:57 30° SSW 04:55:57 30° SSW 04:58:52 10° S
SL-16 R/B 2.0 04:59:24 80° NW 04:59:24 80° NW 05:04:57 10° NNE
ATLAS CENTAUR Rocket 3.9 04:55:54 30° WSW 05:01:15 46° S 05:06:09 10° ESE
Cosmos 292 Rocket 3.8 05:02:32 52° S 05:03:40 76° ESE 05:08:29 10° NNE
Cosmos 1812 3.8 05:03:41 40° ENE 05:04:08 42° E 05:07:49 10° SSE
GPS 2-05 Rocket1 4.5 05:05:47 34° ESE 05:05:47 34° ESE 05:08:03 10° E
Cosmos 2184 Rocket 4.3 05:03:40 10° S 05:09:44 66° E 05:15:51 10° NNE
Timation 1 Rocket 4.2 05:13:58 42° NNW 05:16:07 82° WSW 05:22:07 10° SSE
Cosmos 1680 Rocket 3.4 05:19:29 53° WSW 05:20:24 62° WNW 05:25:35 10° NNE
SKYMED 2 4.3 05:16:59 10° SSE 05:21:11 52° ENE 05:24:53 13° N
Cosmos 2151 Rocket 3.5 05:17:04 10° S 05:21:34 90° WSW 05:26:05 10° N
SL-08 ROCKET BODY 4.3 05:18:18 10° S 05:24:19 89° W 05:30:15 10° N
USA 215 3.3 05:18:57 10° NE 05:25:20 59° NW 05:28:10 34° WSW
TIMED 4.4 05:24:26 55° NNW 05:25:23 88° WSW 05:29:45 10° SSE
Cosmos 2181 Rocket 4.2 05:27:24 30° NW 05:30:12 47° W 05:36:12 10° SSW
Cosmos 2237 Rocket 4.2 05:34:09 13° NNW 05:34:09 13° NNW 05:34:56 10° N
Abrixas rocket 4.4 05:30:52 12° S 05:33:23 25° SE 05:36:13 10° E
Tiangong 2 2.2 05:38:00 33° NNE 05:38:00 33° NNE 05:40:22 10° ENE
Cosmos 2112 Rocket 4.1 05:34:18 10° SW 05:39:19 48° WNW 05:44:22 10° N
Radarsat Rocket 4.5 05:33:53 10° NNE 05:40:57 85° WNW 05:48:56 10° SSW
NOAA 6 3.9 05:36:22 10° N 05:41:25 62° WNW 05:46:28 10° SSW
DELTA 2 R/B(2) 4.0 05:43:05 56° SW 05:43:33 75° SSE 05:45:32 10° ENE
CENTAUR R/B 3.4 05:46:00 27° WNW 05:47:00 28° NW 05:52:49 10° NNE
Cosmos 1536 Rocket 3.5 05:43:30 16° NNW 05:47:03 68° W 05:51:25 10° S
Meteor 1-18 Rocket 4.4 05:41:33 10° NNW 05:47:19 56° W 05:53:05 10° S
Cosmos 1610 Rocket 4.4 05:42:49 10° S 05:48:59 85° W 05:55:15 10° N
Cosmos 1238 Rocket 3.7 05:47:59 20° NNW 05:51:08 48° W 05:56:36 10° SSW
Gbstr 26 Del rocket 3.5 05:51:19 32° W 05:52:50 44° SW 05:56:42 10° SSE
CSL-04 Rocket 4.0 05:47:46 10° NNE 05:53:20 72° ESE 05:58:49 10° S
Cosmos 1603 3.6 05:51:00 10° SSW 05:56:42 74° WNW 06:02:23 10° NNE
Cosmos 2369 Rocket 3.5 05:56:23 10° N 06:01:43 38° ENE 06:06:59 10° SE
PSLV R/B 3.6 06:01:56 31° NW 06:03:16 52° N 06:06:35 10° E
Okean 1 Rocket 3.0 05:59:36 10° S 06:04:02 86° W 06:08:27 10° N
COSMO-SKYMED 1 2.9 06:05:07 10° S 06:09:13 42° W 06:13:21 10° NNW
Lacrosse 5 1.9 06:06:49 10° SW 06:11:56 87° SE 06:17:03 10° NE
Cosmos 921 Rocket 3.5 06:08:51 15° NW 06:12:09 40° W 06:16:22 10° S
USA 129 1.8 06:11:45 10° SSE 06:13:39 65° ENE 06:15:23 13° N
Okean 1-7 Rocket 3.6 06:09:49 10° N 06:14:14 82° E 06:18:36 10° S
Nadezhda 3 Rocket 4.0 06:17:08 10° N 06:23:28 73° W 06:29:48 10° S
Cosmos 2056 Rocket 3.5 06:18:42 10° NNW 06:23:48 63° WSW 06:28:49 10° S
Cosmos 1943 3.3 06:18:18 10° SSW 06:23:54 84° ESE 06:29:33 10° NNE
Okean 1 4.4 06:21:05 12° NW 06:24:01 25° W 06:27:20 10° SW
Cosmos 192 4.4 06:19:19 10° SSW 06:24:06 55° WNW 06:28:56 10° N
Cosmos 44 Rocket 3.4 06:24:50 10° SW 06:29:58 63° WNW 06:35:05 10° NNE
Okean 2 4.5 06:29:39 10° N 06:33:43 48° E 06:37:44 10° SSE
Meteor 1-29 4.5 06:30:55 10° SE 06:34:02 36° ENE 06:37:10 10° N
USA 229 DEB 4.3 06:28:25 10° SSW 06:35:10 63° ESE 06:42:01 10° NE
USA 229 4.3 06:28:33 10° SSW 06:35:17 62° ESE 06:42:07 10° NE
Meteor 1-19 Rocket 4.4 06:30:24 10° NNW 06:36:09 61° W 06:41:49 10° S
Cosmos 1300 Rocket 4.4 06:32:21 10° SW 06:36:11 28° WNW 06:40:01 10° NNW
Meteor 1-11 Rocket 4.0 06:31:10 10° SSW 06:36:53 51° WNW 06:42:30 10° N
IDEFIX/ARIANE 42P 2.9 06:32:25 10° NNE 06:37:36 71° ESE 06:42:47 10° S
Cosmos 1624 Rocket 4.5 06:32:52 10° NNW 06:37:50 43° WSW 06:42:49 10° S
Cosmos 2341 Rocket 4.0 06:32:16 10° SSW 06:38:30 62° W 06:44:43 10° N
Ariane Rocket 3.7 06:36:55 10° N 06:41:19 31° WNW 06:45:42 10° SW
GPS 2-05 Rocket1 3.6 06:38:57 10° W 06:42:25 49° SSW 06:45:58 10° ESE
Cosmos 1346 Rocket 4.3 06:40:45 10° NW 06:43:22 18° W 06:46:01 10° SW
SL-16 R/B 3.9 06:42:12 10° WNW 06:44:16 12° NW 06:46:20 10° NNW
SJ-12 4.0 06:47:58 10° N 06:52:05 60° WNW 06:56:10 10° SSW
CZ-4 R/B 1.5 06:48:17 10° N 06:52:08 49° WNW 06:55:54 10° SSW
Cosmos 1943 Rocket 3.1 06:49:56 10° N 06:55:15 47° ENE 07:00:31 10° SE
